Showing default

IRIDIUM 154, 43574

Orbit data source: Space-Track

IRIDIUM 154, 43574 is a payload satellite owned by Iridium (US) in LEO that was launched on Wed, 25 Jul 2018 UTC via an FALCON 9 launch vehicle from the Air Force Western Test Range (AFWTR). Payload-class satellites include a variety of spacecraft equipped with specific instruments for various scientific and technological missions. These include communications satellites like Starlink; space stations such as the ISS; scientific satellites like the Hubble; Earth observation satellites from companies like Planet Labs, Umbra, and HawkEye 360; GPS; miniature CubeSats for education and research; and military/defense satellites.

Loading next visibility...
Identifier
43574, 2018-061F
Orbit
LEO
Country
Flag of USUS
Related business
Manufacturer
NGIS SSG Gilbert
Mission
Operational Commercial Communications
Bus & Motor
ELITEBUS, Unknown motor
Mass
860 kg wet, 700 kg dry
Launch date (UTC)
2018-07-25 (7 years ago)
Launch vehicle
FALCON 9
Launch site
Air Force Western Test Range (AFWTR)
Object type
Payload
Rocket body
Debris
Shape & HBR
Trap Box + 2 Pan, 4.7 m
Radar Cross Section
14.423 m², Large (>1 m²)

Expand to show TLE details & history
Last TLE update: 23 hours ago

TLE from 23 hours ago
0 IRIDIUM 154
1 43574U 18061F   25260.15761955  .00000166  00000-0  52342-4 0  9996
2 43574  86.4047 170.9067 0002257  82.5967 277.5485 14.34217163374270
Epoch: 2025-09-17T03:46Z
TLE epoch observation values (Epoch: 2025-09-17T03:46:58.329Z)
Latitude
-0.00002°
Longitude
117.82607°
Altitude
780.508 km
Speed
7.464 km/s
True Right ascension
11h 23m 37s
True Declination
0° 00' 00"
Sunlit
Object was in daylight at epoch
Visualization orbit readout
Latitude
Unknown
Longitude
Unknown
Altitude
Unknown
Speed
Unknown
Apparent Right ascension
Unknown
Apparent Declination
Unknown
Sunlit
N/A
Visualization observer readout
Local Sidereal Time
19:15:11
Azimuth
Unknown
Elevation
Unknown
Doppler factor
Unknown
Orbital elements
Apogee altitude
776.248 km
Perigee altitude
773.019 km
Semi-major axis
7,152.77 km
Eccentricity
0.00023
Inclination
86.4047°
RAAN
170.9067°
Arg. of periapsis
82.5967°
True anomaly
277.52286°
Mean anomaly
277.5485°
Eccentric anomaly
277.53568°
Mean motion
3.58783 °/min
Orbital period
100.34 mins
BSTAR
0.000052342
Loading maneuver chart data...
Computing Atmospheric mass density...
Loading historical data...
Loading historical data...
Loading historical data...
Loading historical data...
Loading historical data...
Loading historical data...
Loading historical data...

Documentation

Showing up to 5 results
|